Theta_e
274 273 273 273 273 272 272 272 272 272 272 271 271 272 272 273 273 273 273 273 273 273 273 273 273 273 273 274 272 271 270 271 271 271 270 270 269 269 269 269 267 265 265 267 269 268 268 269 270 269 270 269 270 270 271 274 273 273 273 274 274 275 278
274 273 273 272 272 272 272 272 272 271 271 271 271 271 273 272 272 272 272 273 272 273 273 273 272 273 273 273 271 270 270 270 271 270 268 268 268 268 268 269 267 266 265 264 267 268 269 269 270 268 270 269 269 270 271 271 272 273 273 273 274 274 275
273 273 273 272 272 272 272 272 271 271 271 271 271 271 272 272 272 272 272 272 272 272 273 272 272 272 273 272 269 269 269 270 268 268 267 268 268 268 268 269 268 267 265 264 265 268 267 268 269 269 269 270 271 271 271 271 271 271 273 274 274 274 274
273 273 272 272 272 271 271 271 271 271 271 271 271 271 271 271 271 271 272 272 272 272 272 272 272 272 273 271 268 268 268 268 267 266 266 267 267 268 267 268 268 268 266 266 265 267 267 268 268 269 270 271 271 270 270 270 271 272 272 272 273 273 273
273 272 272 272 271 271 271 271 271 271 271 271 271 271 270 270 269 270 271 271 271 272 272 273 273 273 273 269 266 267 267 267 265 265 266 266 267 267 268 268 268 268 268 266 265 266 268 269 269 269 269 270 269 270 270 271 271 271 272 272 273 274 275
273 273 272 272 271 271 271 271 271 271 271 271 271 270 270 269 269 269 269 270 270 271 273 273 273 273 271 268 266 266 266 265 265 266 266 266 267 267 268 268 268 268 268 268 267 267 267 269 268 268 269 270 270 269 269 269 270 271 271 272 272 273 274
273 273 272 272 272 271 271 271 271 271 271 271 271 269 268 268 268 269 270 270 272 273 274 274 274 271 268 266 266 265 265 265 265 265 266 267 267 267 268 268 268 269 268 268 267 268 268 268 269 269 268 270 271 270 270 268 268 268 270 271 271 272 274
272 273 273 272 272 272 272 271 271 271 270 270 269 268 267 268 269 270 271 272 273 274 274 274 272 268 267 266 265 265 264 266 266 266 266 268 268 268 268 268 268 268 268 268 268 267 267 267 267 268 269 269 269 268 269 269 269 267 269 270 272 272 272
273 272 272 272 272 272 272 271 271 270 270 268 267 266 267 268 270 271 271 272 273 274 274 272 269 266 265 268 272 273 273 272 272 268 266 267 268 269 268 268 268 268 268 268 267 267 267 267 266 267 266 266 266 266 267 269 270 269 270 271 271 272 273
272 272 272 271 271 271 271 271 271 273 274 274 270 265 268 270 271 272 272 272 273 274 273 271 268 268 273 273 273 273 273 273 272 272 270 269 269 269 269 269 269 268 268 267 265 265 265 264 264 265 266 266 267 268 268 268 268 267 269 270 270 271 272
272 272 272 271 271 271 271 272 272 274 275 275 276 271 269 271 271 272 272 273 273 273 271 269 266 263 268 271 272 270 271 271 271 271 272 273 273 273 270 269 268 267 267 266 265 265 265 265 264 265 266 266 267 267 267 267 268 268 269 268 267 266 271
272 272 272 271 271 271 271 272 274 275 275 276 276 275 273 272 272 272 273 273 273 273 270 268 266 265 264 265 264 264 262 266 269 270 271 272 273 273 274 274 270 267 266 266 265 265 265 265 264 265 265 266 267 266 267 267 267 268 268 267 267 268 267
272 271 271 271 270 271 272 272 274 275 276 276 276 276 275 273 273 272 272 273 273 272 270 268 268 266 266 265 271 269 261 261 263 267 270 272 273 273 272 271 271 271 269 267 266 265 264 264 264 263 264 265 266 268 267 267 266 267 267 268 267 268 269
272 272 271 271 271 271 272 272 274 275 276 276 276 276 275 273 273 273 273 273 272 271 270 268 267 266 266 264 263 262 260 261 263 264 266 268 269 268 268 269 269 269 270 270 267 265 264 265 265 264 264 266 268 265 264 265 266 268 268 268 268 270 271
272 272 272 272 272 271 271 272 274 275 276 276 276 276 275 272 272 272 273 273 272 271 270 268 268 266 266 265 261 260 265 265 266 267 269 269 267 267 266 265 264 265 266 267 267 266 266 266 266 266 266 267 267 267 267 267 266 267 267 268 269 270 270
272 272 272 272 272 271 270 271 275 276 276 276 276 276 273 272 272 272 272 272 272 271 270 269 269 268 266 264 261 265 269 269 269 270 269 267 266 265 265 264 267 270 271 270 269 268 267 267 268 270 269 269 268 268 268 268 268 268 267 266 266 265 268
272 272 272 272 272 271 271 271 274 276 276 276 276 275 271 270 270 271 271 272 272 271 270 269 268 267 266 263 261 267 269 271 273 270 268 266 265 264 263 263 265 269 271 271 272 272 271 271 271 270 270 270 271 269 269 267 266 265 267 265 264 266 266
272 272 272 272 271 271 271 271 273 275 276 276 276 274 270 270 270 270 271 271 271 270 269 269 272 272 265 263 261 268 271 273 272 269 267 266 264 263 262 263 265 265 266 270 270 270 270 269 269 268 268 267 267 268 268 265 263 265 266 266 266 265 266
272 272 272 272 272 273 272 271 272 275 275 276 276 274 270 269 268 268 270 270 269 269 269 269 269 271 270 268 268 271 272 273 272 269 267 265 263 262 262 264 266 265 263 263 263 263 264 264 265 263 262 262 266 266 266 263 263 264 264 263 265 267 268
271 271 271 272 271 272 272 271 271 273 275 275 275 275 271 269 268 268 269 269 269 268 268 268 267 267 269 269 269 271 272 273 272 269 267 265 263 262 263 267 266 265 264 262 261 261 263 263 263 262 261 261 261 261 262 262 262 263 264 263 264 265 266
271 271 271 271 271 271 272 271 271 272 275 275 275 275 273 270 270 270 269 268 268 267 266 264 263 261 266 268 269 271 272 272 272 270 267 265 264 266 268 269 263 261 264 260 260 261 262 262 262 261 261 260 260 260 260 261 261 261 262 261 262 263 264
270 270 270 271 271 271 271 272 272 270 273 275 275 274 275 270 269 271 269 268 268 267 264 262 260 259 264 268 270 271 272 271 270 269 266 266 270 271 269 265 262 260 259 259 259 260 261 261 261 260 260 260 260 259 260 260 260 260 260 260 261 262 263
269 269 269 269 270 270 271 271 271 273 271 274 274 274 274 274 273 273 271 268 265 264 263 261 260 261 266 268 271 271 271 270 269 267 267 270 270 268 267 264 259 260 258 258 258 259 259 259 260 260 259 259 259 260 260 260 260 260 260 260 261 263 263
269 268 268 268 268 269 269 270 269 272 273 271 274 274 274 274 274 274 270 267 265 263 261 259 259 262 268 270 270 270 269 268 267 266 269 268 268 266 264 260 258 258 257 258 257 257 257 257 259 259 259 259 260 260 260 260 260 260 261 261 261 262 264
268 268 268 268 267 268 269 269 269 269 271 273 272 274 274 274 274 273 272 267 262 262 260 265 267 270 270 269 269 269 267 265 265 267 267 267 266 263 258 258 257 257 256 256 256 256 257 257 258 259 260 261 261 261 261 260 260 261 261 262 263 263 264
268 267 267 267 267 268 268 269 269 268 268 271 272 272 273 274 274 273 271 269 266 267 268 268 268 267 267 266 266 263 259 259 260 265 265 265 264 256 257 257 256 256 256 255 256 256 256 257 258 259 260 261 261 260 259 259 259 259 261 261 262 262 264
267 267 267 267 267 268 268 268 268 268 268 268 269 269 270 272 271 272 271 265 262 265 259 261 263 263 265 265 266 265 264 263 263 259 258 257 257 257 257 257 256 257 255 256 256 256 256 257 257 259 260 260 260 259 259 260 260 259 260 261 261 261 262
267 267 267 267 267 268 268 268 268 268 267 267 268 268 268 268 266 264 261 259 258 257 257 258 262 261 258 257 256 256 254 254 254 256 256 256 255 255 257 260 262 261 255 255 255 255 256 257 257 257 258 259 259 259 259 260 260 259 259 261 261 260 260
268 268 268 268 268 268 267 267 267 268 271 269 271 269 267 266 264 263 260 264 266 259 256 256 256 255 256 254 255 254 253 253 254 255 255 254 255 255 255 255 254 255 255 255 256 256 256 256 256 256 257 258 258 258 259 260 259 259 259 261 261 260 260
269 269 269 269 269 270 268 268 269 272 273 273 273 273 272 270 270 269 264 266 268 264 257 256 255 254 254 254 252 252 253 253 253 253 254 254 259 256 255 256 255 255 255 256 256 256 255 255 255 255 256 256 257 257 258 259 260 258 259 259 259 259 259
275 274 273 271 269 271 273 273 273 274 274 274 275 274 273 272 271 271 269 268 263 259 256 255 255 254 253 253 252 252 251 252 251 253 252 253 254 254 255 256 255 255 256 256 256 256 255 255 255 255 255 255 256 256 257 258 259 259 258 258 259 258 258
275 275 275 274 272 271 271 273 274 275 275 275 275 274 273 272 271 271 270 268 266 256 254 254 254 253 253 252 252 252 252 252 251 251 252 252 253 254 255 255 255 257 255 255 255 256 255 255 255 255 255 255 256 256 256 257 257 257 257 257 258 258 258
275 276 275 275 275 274 273 273 274 276 276 275 275 274 273 272 271 271 270 269 260 254 255 254 254 252 252 253 252 251 250 250 250 251 252 251 252 253 254 254 255 257 255 255 256 256 254 255 255 255 255 255 255 255 255 256 256 257 257 257 257 257 258
275 276 276 276 276 275 275 275 275 276 276 276 275 274 273 271 269 270 269 265 255 256 255 255 254 253 252 251 252 252 251 251 250 251 251 251 252 252 253 254 255 254 255 255 255 254 254 255 254 255 254 254 254 254 254 255 256 256 256 256 256 256 257
271 274 276 274 275 275 275 275 275 275 276 275 275 273 273 271 266 264 261 259 255 256 256 255 254 254 252 251 251 252 252 251 250 250 251 251 252 252 253 254 255 256 255 254 254 254 254 255 254 254 254 254 253 253 253 254 255 255 256 255 255 256 256
269 271 274 276 275 276 276 275 275 275 276 275 275 274 271 262 260 258 257 255 255 256 256 255 254 253 252 251 252 253 252 251 250 250 250 249 250 252 254 256 257 257 255 254 254 254 255 255 254 254 254 253 253 253 253 253 254 255 256 256 255 256 256
Wind_Speed
8 7 7 7 7 7 6 6 6 6 6 6 6 6 6 7 7 7 6 7 8 6 6 8 10 11 11 10 10 8 8 8 9 7 6 7 9 11 11 11 11 13 17 14 8 12 13 13 14 14 12 14 12 12 11 14 12 13 12 11 10 10 17
7 7 7 7 6 6 6 6 6 5 5 6 6 7 6 7 7 7 7 6 8 7 7 8 9 10 11 10 9 8 9 9 7 5 6 8 10 10 10 10 11 13 14 19 13 14 13 14 13 15 13 13 14 13 12 12 12 11 12 12 11 10 10
8 7 7 6 6 6 6 7 6 6 6 6 6 6 6 7 7 7 7 7 7 9 8 9 10 11 11 7 7 8 8 8 6 4 6 9 10 11 11 11 12 13 13 16 17 14 15 12 12 13 14 14 14 15 13 13 13 12 11 11 12 11 9
7 7 7 7 7 7 6 7 7 6 6 7 6 6 6 6 6 6 6 6 7 8 9 10 11 11 9 7 6 7 8 7 4 4 6 9 11 11 12 11 12 13 13 14 17 14 13 13 14 13 13 14 13 16 15 13 13 12 12 12 12 12 11
7 7 7 7 7 7 7 7 7 7 7 6 6 6 6 6 5 5 5 6 7 10 10 11 11 11 9 5 6 7 7 7 5 5 7 10 11 12 12 11 11 12 12 14 16 17 13 13 14 12 14 13 15 13 15 14 14 14 13 12 11 9 10
8 8 8 7 7 7 7 7 7 7 7 6 6 6 5 5 4 4 4 5 8 10 11 11 11 9 7 6 7 8 7 5 6 7 10 12 12 12 12 12 13 13 14 14 15 14 18 11 13 14 11 13 12 15 15 14 13 13 14 13 12 10 9
10 8 8 7 7 8 7 7 6 6 6 6 6 6 5 5 4 3 5 7 10 12 12 11 9 7 6 7 7 7 7 7 8 8 11 11 11 11 11 11 11 13 13 14 15 15 13 14 14 13 15 12 12 15 14 16 15 14 11 10 11 12 8
10 9 8 8 8 7 6 6 6 6 6 5 5 5 4 3 3 5 8 10 11 11 11 9 7 6 6 7 7 7 7 8 9 8 9 10 11 12 13 12 13 11 11 12 14 13 16 15 14 12 14 13 13 14 13 11 12 14 12 11 9 10 10
10 10 9 8 8 7 6 6 6 5 5 5 6 5 4 3 5 8 10 10 11 11 9 6 5 5 5 7 11 15 14 13 12 8 9 10 11 12 11 12 10 12 10 10 11 14 12 11 12 14 13 13 12 13 13 12 12 13 12 11 11 9 8
9 9 9 9 8 7 7 6 5 8 14 11 6 5 5 6 8 9 9 10 10 9 7 6 6 6 11 14 16 16 16 15 16 18 14 12 11 12 12 11 8 7 7 10 12 14 12 14 14 11 13 13 13 13 13 14 14 14 13 13 11 10 7
10 10 9 9 8 8 8 7 6 14 14 15 15 9 7 7 8 8 9 10 10 8 7 5 5 5 6 7 9 9 14 16 17 18 20 22 23 20 15 12 10 7 8 10 12 12 12 12 13 13 11 13 13 11 13 13 12 13 10 7 7 8 7
10 9 9 8 8 8 8 7 11 16 15 15 15 13 7 6 8 8 8 8 8 7 5 5 5 5 4 4 4 6 5 7 14 20 22 23 23 22 21 21 15 13 11 11 10 11 13 12 12 10 9 10 11 11 11 12 12 12 11 10 9 10 10
9 9 9 8 9 9 8 7 13 15 16 15 15 15 11 7 7 8 8 8 8 7 6 6 6 5 5 4 11 9 4 6 10 17 23 24 23 20 21 20 20 20 17 13 12 10 9 8 8 10 11 11 13 13 12 9 10 10 11 11 12 11 10
11 10 10 9 9 8 8 8 12 16 15 15 15 14 12 6 7 8 9 9 8 7 6 6 6 6 6 5 4 2 4 6 11 13 14 12 8 10 16 18 20 21 22 19 14 12 13 11 9 12 11 12 13 14 12 10 9 9 11 12 12 11 10
10 10 9 9 9 8 8 8 15 15 15 14 14 14 11 5 6 6 8 8 7 6 5 5 6 5 6 6 4 3 5 9 12 14 12 10 11 12 11 9 10 11 11 10 8 8 10 12 11 12 13 12 12 13 12 11 13 14 13 13 12 11 10
9 10 10 9 9 9 8 8 16 16 15 15 14 14 7 5 6 6 7 7 6 6 5 4 5 6 7 6 4 6 13 15 13 13 11 12 12 12 11 10 12 18 18 15 12 10 10 9 11 15 14 13 12 11 11 13 13 12 12 13 12 12 9
9 8 8 9 9 10 8 8 13 16 15 15 16 11 5 5 5 5 6 7 5 4 4 4 5 5 7 4 3 7 15 17 18 11 10 11 12 12 12 12 10 16 19 19 19 20 20 19 20 20 20 19 22 16 11 7 6 8 8 9 10 9 8
7 8 8 9 9 9 8 8 11 16 15 15 16 11 5 5 5 5 6 5 4 3 4 6 15 11 5 5 4 11 16 17 16 8 7 10 12 15 14 13 10 9 11 18 18 18 18 18 18 20 19 19 18 18 14 7 8 8 7 8 8 10 8
8 7 6 8 8 13 11 7 10 16 15 15 15 11 4 5 4 5 4 4 4 3 5 5 6 13 11 7 9 16 16 18 15 7 8 8 10 12 14 12 11 10 12 12 12 10 10 9 11 10 8 10 18 17 14 8 7 7 7 9 9 6 4
8 8 8 7 7 8 10 9 8 10 15 15 15 15 7 4 5 5 4 3 4 5 4 5 5 5 9 13 15 16 17 17 16 10 6 5 6 10 11 10 8 11 12 11 11 12 11 10 7 7 7 7 7 9 9 8 6 5 6 8 9 8 7
8 8 8 8 8 8 8 8 7 9 15 15 15 15 12 5 6 5 4 3 4 5 5 4 4 3 7 13 15 17 17 16 15 14 8 7 8 8 14 15 9 12 17 10 11 11 10 8 7 6 6 6 6 6 6 7 7 6 6 5 7 9 9
8 8 8 7 8 8 8 8 11 7 13 15 15 14 15 7 5 5 4 5 4 3 3 4 3 3 8 13 15 17 15 14 14 14 7 9 16 19 18 12 9 9 8 9 8 9 9 8 8 8 7 6 6 5 6 6 6 6 6 6 6 7 8
9 9 9 7 7 6 7 8 9 14 9 14 14 15 14 14 9 10 5 4 2 3 3 2 3 5 10 13 16 15 14 13 14 10 9 16 16 16 18 13 7 8 8 8 8 8 9 9 9 10 9 8 9 8 7 6 6 7 7 7 7 8 9
9 9 9 10 8 7 7 7 7 12 15 11 15 14 14 14 13 11 3 4 4 3 3 3 3 6 11 14 15 13 12 12 12 9 14 15 16 17 14 8 7 7 8 8 8 9 9 10 10 10 10 10 10 9 9 8 8 7 7 7 7 8 10
9 10 9 9 9 8 8 8 7 7 11 16 14 15 14 13 12 10 9 3 2 1 1 5 8 10 11 12 12 12 11 9 11 14 13 15 16 14 7 7 7 8 8 9 9 9 9 9 10 10 10 10 10 10 8 7 7 7 6 5 7 8 9
10 9 9 9 8 9 8 8 7 8 8 9 12 12 13 13 12 10 8 5 3 5 6 6 7 8 9 9 8 5 3 3 5 12 14 15 13 6 7 7 7 7 8 8 9 9 10 10 10 10 10 10 10 8 8 9 9 8 6 5 4 3 3
11 10 10 10 9 8 8 8 8 8 7 7 7 6 7 7 6 8 7 2 0 1 1 2 4 3 5 5 8 8 8 7 8 6 7 7 6 6 7 7 6 8 8 8 8 9 9 9 9 9 9 10 9 9 9 9 7 6 6 6 6 5 5
12 12 12 11 9 8 8 8 8 8 9 9 7 6 5 5 5 4 4 3 3 2 1 0 3 4 3 3 4 5 4 4 4 5 5 6 5 6 7 8 12 9 4 5 6 6 7 8 9 10 10 10 8 8 8 8 11 9 8 8 6 5 6
12 12 10 9 10 10 9 8 9 9 10 10 12 10 8 7 6 6 5 6 6 3 1 0 0 3 4 3 4 4 5 6 6 7 6 5 5 6 6 6 6 8 9 8 7 8 9 9 9 9 9 10 10 9 10 9 8 8 8 7 5 5 5
12 11 10 10 9 10 11 11 10 13 18 18 18 17 15 12 12 10 8 7 8 6 2 1 3 3 3 3 3 4 4 6 5 6 7 6 7 7 7 7 7 7 8 8 7 7 8 9 9 9 10 10 10 10 10 11 12 9 7 8 7 6 7
23 20 17 11 8 9 13 9 13 18 19 19 18 17 15 14 13 13 12 10 7 3 3 2 4 3 3 2 1 2 3 4 4 4 4 6 6 5 7 7 7 7 8 8 7 8 7 8 8 9 9 10 10 10 10 9 7 6 7 8 8 9 9
24 23 20 19 14 9 8 12 15 18 19 19 19 17 16 15 14 13 13 12 9 5 3 3 5 4 1 1 1 1 2 2 3 3 4 4 7 7 7 7 8 8 7 8 7 8 8 8 8 8 9 9 9 9 9 10 11 11 9 9 7 8 9
23 24 22 21 19 18 13 12 13 18 20 19 19 18 16 15 14 14 14 12 6 4 5 3 4 5 2 0 0 1 1 2 3 3 4 4 4 6 7 7 6 7 7 7 8 8 7 7 8 8 8 8 9 9 10 10 10 10 9 7 8 8 9
22 22 22 22 21 19 18 17 17 20 19 19 19 18 17 15 10 13 13 9 6 5 5 5 5 5 3 2 1 0 1 1 3 3 3 4 4 4 5 6 5 6 7 7 7 7 7 7 7 7 8 8 8 8 8 9 10 10 11 12 10 8 9
11 17 23 17 17 19 21 19 20 20 19 20 20 19 19 16 8 7 5 4 3 5 6 6 6 5 4 2 1 1 0 1 2 2 3 3 4 4 5 6 6 6 6 7 7 7 7 7 8 8 7 8 8 9 10 10 10 10 10 11 11 9 9
8 9 15 24 20 21 20 22 22 20 21 20 21 21 21 10 7 6 6 6 5 5 5 5 6 6 4 2 1 0 0 1 1 1 3 2 3 4 5 5 6 6 7 7 7 7 7 7 7 7 7 7 7 9 9 9 9 9 10 10 10 10 9
Wind_Direction
184 187 187 188 187 189 192 194 203 200 198 203 211 215 225 235 241 246 253 264 266 269 271 274 277 279 280 279 274 275 283 283 281 280 287 292 286 283 281 281 280 280 286 288 284 293 296 298 299 296 295 295 294 293 289 289 289 293 294 292 289 284 287
183 187 189 188 191 189 193 199 204 205 199 206 206 216 221 235 242 244 248 249 260 259 265 272 273 272 273 269 268 279 282 282 277 280 289 286 287 280 282 278 281 280 284 291 296 291 291 294 295 294 294 293 297 293 294 292 292 291 291 291 290 289 286
183 187 189 190 190 191 197 202 204 203 204 208 213 221 228 233 237 243 245 248 259 268 268 266 270 271 269 265 272 276 280 279 279 291 286 287 286 281 279 278 274 280 281 284 288 291 293 292 293 290 296 295 292 294 293 293 291 291 286 281 282 282 280
181 184 190 194 194 194 200 202 201 206 206 210 213 219 226 227 240 246 249 250 257 263 268 266 266 265 265 263 269 278 279 273 267 272 284 286 285 279 275 272 270 265 271 277 285 283 284 289 289 287 289 289 288 289 290 286 286 283 283 282 278 278 277
180 187 193 198 198 200 203 203 202 203 206 209 211 217 224 230 234 240 242 248 254 262 265 267 264 261 258 257 263 275 275 273 268 275 282 279 275 268 268 266 265 264 263 274 276 283 278 283 280 280 282 283 287 286 285 285 285 287 284 280 274 271 278
178 187 196 198 201 203 205 204 202 202 205 207 212 218 221 224 232 233 242 251 262 262 262 260 255 253 253 252 256 265 267 263 267 275 276 276 271 270 271 267 264 264 268 262 268 272 288 276 281 283 276 281 285 286 288 286 284 284 285 285 284 271 264
178 183 189 198 201 206 205 205 202 203 205 205 208 214 222 228 229 249 257 260 256 260 259 256 251 246 243 247 247 255 261 262 263 266 269 268 266 262 266 272 273 272 264 267 274 277 272 284 284 280 285 285 284 283 280 286 288 283 278 270 275 282 274
181 181 183 194 201 204 202 201 203 205 205 207 208 212 210 204 230 249 255 258 256 255 258 255 249 246 244 240 244 246 253 254 264 259 269 280 284 283 279 275 274 268 270 269 269 269 283 281 279 280 281 286 286 282 274 267 275 280 284 278 263 253 260
178 179 184 189 194 198 200 202 207 201 199 203 211 191 203 217 239 251 259 266 265 263 259 252 253 249 246 241 250 264 271 268 267 279 290 283 278 279 279 280 270 272 270 272 278 284 286 285 287 284 287 286 282 280 281 283 279 280 282 289 289 285 286
182 182 184 185 189 193 199 203 199 211 218 214 194 198 202 221 241 252 262 269 270 269 262 255 252 254 259 270 281 287 286 284 287 289 286 288 292 292 288 282 274 272 279 290 290 289 289 289 282 278 282 281 280 283 285 284 278 275 276 272 275 278 287
186 186 186 185 188 192 197 201 201 217 222 223 220 199 198 228 249 257 262 262 266 267 269 261 256 255 266 277 292 293 286 284 287 290 291 293 295 297 296 298 296 289 294 288 285 284 285 279 282 282 279 279 282 281 281 281 283 277 278 286 300 299 274
191 185 184 186 190 198 201 200 206 218 221 224 226 226 217 229 249 257 260 265 269 270 269 273 272 264 250 256 250 253 247 280 291 291 290 291 297 298 299 302 302 303 300 293 286 289 288 289 287 297 297 288 278 272 274 276 274 279 285 287 287 284 288
188 191 185 185 190 199 203 202 211 217 221 223 225 228 232 239 249 256 262 268 271 273 270 273 273 270 260 242 276 286 303 291 288 286 284 286 291 299 305 304 300 297 294 296 290 288 286 280 292 287 284 284 288 290 282 268 276 287 289 281 273 269 277
193 191 189 188 190 195 199 202 209 219 223 225 226 228 233 235 244 257 264 267 270 270 271 267 267 272 279 264 251 250 271 286 281 277 279 280 291 306 306 305 303 299 295 290 285 281 280 285 273 274 276 279 281 282 283 287 282 270 265 264 266 274 277
191 195 192 190 189 190 199 200 207 215 221 223 226 228 232 233 245 255 263 267 268 275 273 277 271 271 271 271 256 231 276 281 280 278 282 300 308 306 301 298 295 284 278 270 260 266 274 277 269 264 266 265 267 263 268 265 265 272 278 283 290 296 296
195 195 189 189 187 190 198 201 208 212 217 221 223 225 225 231 243 249 264 269 272 272 271 273 277 274 269 266 266 284 298 293 286 288 301 307 306 303 302 295 294 302 307 306 303 297 287 283 287 294 289 282 261 250 252 259 265 267 268 273 274 272 279
197 190 182 185 188 193 197 196 209 210 214 218 222 221 208 218 230 248 259 267 266 270 280 281 280 268 266 275 266 290 298 293 300 305 304 305 304 303 305 301 300 313 317 317 316 316 318 319 318 312 307 306 305 305 302 296 283 277 262 238 250 254 254
188 191 186 186 192 192 191 197 205 210 213 217 220 216 201 219 230 246 253 260 263 276 281 284 286 291 298 295 282 290 296 302 312 301 298 303 309 309 308 304 309 312 314 321 319 319 322 321 322 327 324 319 313 307 304 292 273 274 293 281 243 242 251
190 187 184 188 187 195 198 198 206 210 211 212 214 215 192 211 226 235 249 257 270 271 279 284 298 297 295 294 294 301 304 311 317 308 307 312 311 304 301 304 313 324 325 323 323 319 316 306 315 322 314 310 315 316 319 318 303 298 278 271 282 288 280
188 186 189 183 180 196 199 197 203 209 209 209 213 215 200 197 220 227 229 248 261 284 274 275 290 301 305 303 302 300 307 317 322 321 314 322 305 294 291 312 329 336 325 319 315 309 309 307 308 312 315 307 308 308 307 310 310 296 274 268 272 282 281
186 188 187 186 187 192 199 196 194 201 211 212 210 211 212 198 216 214 219 220 255 257 267 282 278 294 309 304 300 301 314 323 328 327 327 312 274 285 318 332 341 332 329 315 311 311 315 318 317 313 310 314 315 310 309 306 300 292 290 288 268 260 262
185 186 184 184 189 190 198 194 196 202 214 208 207 209 215 202 202 202 183 232 234 247 270 276 285 297 304 303 300 308 320 330 333 332 323 308 322 332 342 349 342 321 320 319 318 319 322 327 328 329 327 323 321 311 302 296 288 285 278 268 267 264 260
188 184 186 187 193 191 191 191 195 201 199 206 208 213 216 218 215 227 213 166 205 233 262 273 296 301 302 302 307 319 330 344 341 332 323 337 344 351 354 353 328 332 330 326 327 329 331 334 336 337 337 335 331 323 315 309 291 276 268 262 259 259 261
194 190 190 189 193 194 195 195 185 203 198 206 218 218 216 217 221 221 156 154 194 213 240 283 286 273 291 308 320 326 344 352 343 332 345 356 358 1 355 343 340 338 338 330 330 336 339 339 338 336 340 341 334 325 323 317 309 295 271 254 250 247 249
195 199 197 192 193 191 192 194 188 191 206 206 212 217 215 213 215 221 219 184 132 138 198 252 275 299 317 321 324 334 349 352 338 345 2 6 7 1 344 346 346 346 341 343 345 341 335 336 339 335 330 330 330 324 320 325 322 314 285 261 244 246 249
196 201 200 200 196 192 190 189 185 190 197 212 210 213 214 208 210 213 210 199 202 230 250 278 316 334 333 328 324 348 8 4 334 354 8 7 5 356 353 348 350 353 352 345 341 340 340 333 330 333 333 333 335 341 347 345 337 329 335 352 346 302 263
200 202 203 203 196 190 186 188 187 186 186 192 193 190 203 203 199 200 205 159 124 276 12 353 337 317 330 344 350 9 11 360 338 341 355 355 351 359 356 352 359 0 344 337 334 335 334 332 327 319 330 348 338 344 349 344 331 326 342 348 351 351 343
204 205 203 199 190 185 185 188 187 186 183 183 180 179 171 149 126 133 121 153 165 139 127 55 318 345 11 353 4 4 7 340 330 346 357 356 349 2 354 1 358 355 340 327 321 312 318 327 339 346 346 344 342 344 336 342 358 350 349 355 344 7 13
209 208 206 196 189 182 187 189 194 195 181 177 179 174 167 159 160 155 162 175 176 133 103 296 44 51 18 12 7 3 354 343 344 349 356 354 353 5 355 359 357 358 350 337 339 347 346 344 345 345 345 349 353 355 353 354 352 346 4 351 2 27 354
211 206 197 197 201 191 187 191 191 179 183 184 183 179 171 163 166 168 161 186 165 127 129 167 118 85 56 9 17 2 352 343 340 343 353 352 0 1 355 4 356 349 342 339 345 345 347 350 348 349 350 353 355 351 359 358 8 343 326 5 357 6 2
223 216 206 196 192 196 199 181 175 181 184 182 180 174 172 171 172 172 171 162 137 121 134 128 103 88 50 1 29 349 337 332 331 339 352 352 348 355 357 359 354 350 344 342 343 353 351 350 355 352 350 355 353 351 351 351 340 338 345 359 354 14 1
224 222 214 202 193 181 190 189 184 183 181 179 174 170 166 164 166 167 165 162 150 125 142 115 119 108 93 355 11 301 330 323 327 333 2 354 359 354 355 359 353 349 349 339 343 357 352 357 356 355 352 353 353 351 354 358 1 3 359 351 356 13 5
223 220 217 209 199 187 180 180 185 183 177 175 170 163 161 162 163 164 160 154 136 125 139 127 119 123 143 112 237 288 305 317 322 346 7 14 3 351 343 347 337 345 346 344 345 358 349 355 355 353 355 355 357 360 359 359 5 4 2 349 356 360 7
224 220 214 209 200 194 187 182 180 177 175 172 166 161 158 155 154 157 157 149 152 150 146 146 127 131 146 190 212 257 353 348 327 347 9 10 1 343 336 332 334 353 353 349 347 355 347 356 356 355 1 360 1 0 358 4 5 5 8 9 3 350 352
212 218 213 205 201 193 189 184 179 178 177 172 165 161 156 144 141 146 141 126 122 141 151 152 149 148 160 161 161 236 101 319 324 354 356 8 2 346 335 332 347 355 356 353 350 355 355 359 355 357 2 3 1 3 11 8 6 6 9 6 1 354 352
200 200 214 205 198 196 190 186 182 183 179 174 165 162 146 134 153 148 158 155 163 147 155 143 140 134 147 143 140 107 57 327 12 330 328 327 26 343 326 329 355 2 359 353 353 356 353 355 356 0 1 359 6 16 13 7 5 4 5 8 6 1 4